This is the latest recevied weather packets stored in our database for station/object K5RWS. If no packets are shown the sender has not sent any weather packets the latest 10 day(s).
| Time | Temp. | Humidity | Pressure | Rain* | Wind** | Luminosity | Snow |
|---|---|---|---|---|---|---|---|
| 1777918364 | 21.67° C | 19% | 1016.3 hPa | 0 mm | - | 440 W/m² | - |
| 1777918063 | 21.11° C | 20% | 1016.6 hPa | 0 mm | - | 448 W/m² | - |
| 1777917761 | 21.11° C | 19% | 1016.4 hPa | 0 mm | - | 433 W/m² | - |
| 1777917459 | 21.11° C | 19% | 1016.8 hPa | 0 mm | - | 472 W/m² | - |
| 1777917155 | 20.56° C | 19% | 1016.9 hPa | 0 mm | - | 527 W/m² | - |
| 1777916853 | 20.56° C | 22% | 1016.7 hPa | 0 mm | - | 526 W/m² | - |
| 1777916551 | 21.11° C | 22% | 1016.8 hPa | 0 mm | - | 620 W/m² | - |
| 1777916247 | 20.56° C | 21% | 1016.9 hPa | 0 mm | - | 460 W/m² | - |
| 1777915944 | 20.56° C | 21% | 1017 hPa | 0 mm | - | 454 W/m² | - |
| 1777915641 | 20.56° C | 20% | 1016.9 hPa | 0 mm | - | 519 W/m² | - |
| 1777915337 | 20.56° C | 20% | 1017 hPa | 0 mm | - | 503 W/m² | - |
| 1777915034 | 20.56° C | 21% | 1017.2 hPa | 0 mm | - | 397 W/m² | - |
| 1777914731 | 20.56° C | 20% | 1017.4 hPa | 0 mm | - | 378 W/m² | - |
| 1777914428 | 20.56° C | 19% | 1016.8 hPa | 0 mm | - | 417 W/m² | - |
| 1777914125 | 20° C | 20% | 1017 hPa | 0 mm | - | 389 W/m² | - |
| 1777913821 | 20° C | 20% | 1017 hPa | 0 mm | - | 422 W/m² | - |
| 1777913517 | 20° C | 20% | 1017.3 hPa | 0 mm | - | 342 W/m² | - |
| 1777913214 | 19.44° C | 21% | 1017 hPa | 0 mm | - | 326 W/m² | - |
| 1777912910 | 20° C | 21% | 1016.9 hPa | 0 mm | - | 374 W/m² | - |
| 1777912607 | 19.44° C | 21% | 1017.2 hPa | 0 mm | - | 343 W/m² | - |
| 1777912303 | 19.44° C | 20% | 1017.3 hPa | 0 mm | - | 292 W/m² | - |
| 1777911999 | 19.44° C | 20% | 1017 hPa | 0 mm | - | 260 W/m² | - |
| 1777911695 | 20° C | 20% | 1017 hPa | 0 mm | - | 260 W/m² | - |
| 1777911392 | 19.44° C | 21% | 1017.3 hPa | 0 mm | - | 340 W/m² | - |
| 1777911090 | 19.44° C | 22% | 1017.3 hPa | 0 mm | - | 270 W/m² | - |
* Rain latest hour (hover to see other rain measurements)
** Current wind speed in m/s (hover to see current wind gust speed)